Theta_e
322 323 325 326 326 326 327 327 326 326 326 326 326 327 327 326 323 303 299 308 311 328 326 306 303 304 304 303 303 300 293 290 291 290 294 294 295 294 294 293 293 294 293 294 295
320 321 322 324 325 326 326 326 325 325 326 326 325 326 327 324 303 299 316 326 327 329 304 302 301 303 300 300 299 295 291 293 294 293 294 294 295 294 293 291 292 290 291 292 293
320 320 320 322 323 325 326 325 325 324 325 325 325 325 325 318 301 299 324 326 326 321 305 303 301 300 298 298 297 294 291 295 295 296 296 295 294 293 293 291 294 292 290 291 291
320 320 321 321 322 323 324 325 325 324 324 324 325 324 323 306 293 303 325 324 321 309 303 300 300 297 296 295 297 293 294 295 297 297 295 294 293 292 292 296 294 293 292 291 290
319 319 320 320 321 322 323 324 325 324 323 324 325 324 309 298 300 306 319 314 303 302 300 298 298 296 294 294 295 293 294 296 296 296 295 294 293 293 291 294 292 290 290 290 290
317 318 319 320 321 322 322 323 324 323 322 323 324 322 305 296 305 303 302 302 301 300 298 299 297 297 295 295 293 293 295 295 295 295 295 294 292 292 293 288 288 288 289 289 289
316 316 318 319 320 321 322 322 323 322 322 324 324 311 300 299 305 302 303 299 299 300 299 299 299 296 296 292 295 293 291 292 292 293 293 293 291 290 293 288 288 286 287 287 288
315 315 316 318 320 320 321 321 321 321 322 324 323 305 298 305 304 302 301 299 300 300 300 300 299 298 295 295 293 290 289 288 291 292 292 292 289 293 290 287 288 286 285 286 287
315 315 315 317 319 319 320 320 320 321 323 323 306 301 297 309 301 302 298 299 299 300 299 302 298 294 294 290 289 289 287 286 289 292 291 290 289 292 288 286 288 286 286 286 286
315 314 315 316 317 319 319 320 317 317 315 311 305 299 297 297 302 302 298 299 297 299 298 297 293 291 289 289 284 286 285 286 286 289 289 288 288 293 290 286 288 288 286 285 285
314 314 314 315 317 319 313 300 298 293 296 296 295 294 296 301 302 298 298 298 297 295 291 292 290 288 290 290 289 287 286 286 287 288 287 287 288 292 294 288 288 287 285 285 286
315 314 313 315 318 318 301 297 296 296 292 296 295 296 298 301 296 298 298 295 293 290 291 290 288 291 291 289 288 286 285 285 286 286 286 285 286 290 292 292 294 291 287 286 286
315 314 313 314 317 303 297 297 302 299 291 294 295 295 296 300 296 295 296 292 290 288 289 287 289 291 290 287 286 285 284 284 285 284 284 282 282 283 287 289 290 290 290 288 287
315 314 313 316 305 299 296 299 301 297 282 286 290 296 299 297 292 295 294 292 289 288 288 289 289 290 287 287 287 284 286 285 283 282 279 283 280 282 286 288 289 289 287 288 286
315 314 314 312 302 297 298 300 298 290 273 287 290 298 296 294 292 292 293 291 288 288 289 288 286 285 286 287 288 286 284 283 282 281 278 279 276 282 281 284 288 290 288 287 286
315 314 314 306 299 298 299 295 293 283 275 284 292 291 291 292 291 291 290 292 290 289 286 288 287 288 288 285 285 286 283 282 278 277 273 281 280 280 281 284 287 288 288 287 284
315 314 311 306 300 298 297 293 282 276 284 283 287 289 288 288 289 290 288 286 286 284 283 285 285 285 287 285 285 284 283 278 276 273 277 276 275 284 285 285 288 289 288 285 284
315 314 311 308 302 300 294 289 277 281 282 287 288 287 287 288 287 288 286 284 287 286 283 283 283 284 286 288 286 282 284 279 273 272 279 273 275 284 285 289 286 284 284 282 282
315 309 307 306 301 300 292 282 281 283 286 286 286 284 284 287 287 285 285 284 288 290 287 283 283 283 285 284 285 281 280 283 276 264 271 280 282 284 285 284 283 282 280 281 282
310 306 305 307 304 298 286 285 284 289 287 287 283 286 281 284 284 285 284 286 288 290 291 288 284 283 282 282 280 282 283 278 278 273 268 277 280 283 284 286 286 284 283 283 282
309 301 306 305 306 296 286 283 285 290 290 288 284 282 283 283 285 282 285 286 289 289 291 289 289 283 281 280 280 279 279 278 280 277 273 273 281 283 285 286 286 288 285 283 282
306 295 302 307 295 295 289 287 292 288 289 290 287 286 285 285 284 283 283 288 291 289 287 288 287 284 281 279 279 280 282 283 278 276 274 274 281 286 287 286 286 287 285 283 282
301 300 303 305 289 290 288 288 290 288 288 289 288 288 288 285 283 285 286 289 290 290 287 288 284 280 283 279 279 279 280 282 280 277 279 275 281 288 285 285 286 285 283 283 282
301 292 294 296 298 293 291 289 288 291 291 289 288 289 286 285 288 286 285 288 288 290 294 293 285 285 282 283 281 278 278 281 282 280 281 280 283 288 290 289 289 284 281 283 281
303 294 293 286 290 293 293 290 290 289 289 291 288 289 287 285 286 286 288 286 287 289 288 288 284 285 287 288 282 280 281 281 279 282 280 283 283 287 290 291 292 293 293 288 280
301 294 296 292 293 291 292 290 289 292 290 288 288 291 290 287 288 286 288 287 288 282 284 285 283 284 284 286 282 281 283 285 284 283 282 283 282 290 293 293 292 292 292 291 284
308 306 297 294 291 289 289 290 291 293 294 293 293 290 289 289 293 294 294 292 291 288 285 283 283 281 279 284 282 277 283 285 286 287 286 282 286 290 289 290 290 291 291 291 290
Wind_Speed
19 20 21 21 20 20 20 19 18 16 12 12 12 9 8 7 3 1 2 3 2 4 1 2 2 2 4 3 3 3 5 2 4 5 3 4 3 1 1 4 3 5 3 2 11
18 19 20 21 21 20 19 18 17 17 15 12 10 9 10 8 1 1 1 2 3 1 1 2 2 3 4 2 3 5 4 6 5 5 2 4 4 7 4 2 5 4 2 4 13
18 19 19 21 21 20 19 17 16 16 17 13 10 8 8 6 2 5 2 3 4 3 4 2 3 2 4 2 2 2 4 3 3 4 3 4 3 6 6 6 10 11 9 12 9
18 19 20 21 21 21 20 17 16 14 16 15 10 8 8 2 4 3 1 2 4 4 2 3 4 4 3 3 1 1 2 3 3 3 4 4 7 4 9 6 1 6 14 13 14
17 18 19 21 21 21 22 19 16 15 15 14 9 5 1 1 7 1 2 3 3 2 4 3 3 3 2 3 2 3 2 3 4 4 3 4 6 6 9 8 1 6 12 16 14
17 17 18 19 21 23 23 23 18 15 15 13 7 3 3 4 2 2 1 2 3 3 2 4 4 3 4 2 2 2 2 5 3 3 3 4 3 1 2 6 6 9 14 14 16
17 18 18 18 20 22 23 23 21 16 15 9 3 2 3 12 4 4 5 2 2 1 4 1 5 1 5 2 0 2 3 6 4 2 4 5 7 12 4 4 7 10 11 13 14
16 18 18 18 19 21 23 23 21 18 9 1 3 0 7 1 3 4 3 3 4 5 5 3 3 6 2 3 5 1 3 3 2 4 2 5 11 7 6 8 11 11 12 14 17
16 17 19 18 19 21 24 26 20 6 3 3 1 3 8 4 2 3 1 6 4 3 4 3 5 4 3 4 5 5 4 4 7 7 3 6 11 6 5 7 10 12 14 14 12
15 16 18 20 20 21 26 24 6 2 2 0 1 2 2 4 3 4 2 4 3 4 4 5 5 3 3 4 6 6 4 5 7 4 4 5 17 18 7 10 17 14 14 14 16
14 16 17 19 19 22 14 6 7 4 4 7 4 4 2 1 0 1 2 5 3 3 5 1 2 10 13 9 3 3 4 7 5 4 4 10 15 19 19 9 16 15 13 16 21
11 15 17 17 18 22 2 4 3 3 9 5 5 6 4 3 2 4 3 6 5 8 6 4 12 9 5 4 5 4 4 8 7 1 6 9 18 18 17 21 18 18 13 17 12
8 11 16 17 16 5 3 4 1 3 2 10 5 5 3 6 6 6 10 4 5 6 8 9 4 6 7 4 6 5 7 5 8 6 4 8 11 8 6 7 13 11 11 12 17
9 7 13 15 2 3 1 1 1 1 2 9 5 4 3 3 5 1 4 5 2 10 10 8 2 7 4 6 8 4 6 2 3 3 5 4 17 3 7 11 9 9 10 13 14
9 7 7 4 4 0 1 2 2 2 6 7 3 1 3 6 4 1 1 1 7 7 7 9 8 5 5 9 9 7 3 4 1 3 3 4 6 5 4 8 17 10 10 10 11
12 9 4 0 1 3 3 1 2 6 11 5 4 4 3 2 2 1 2 3 1 4 2 6 1 6 7 3 2 6 4 4 4 2 2 9 10 6 7 10 9 7 6 7 8
13 11 7 5 3 1 2 2 3 8 4 5 5 4 2 6 4 6 6 6 8 5 6 1 5 3 4 5 3 3 6 6 7 3 11 5 3 15 7 12 13 11 7 7 7
13 11 6 4 4 3 3 5 11 8 9 3 4 2 7 8 5 7 5 5 8 1 4 6 11 10 6 8 9 7 10 9 10 5 15 2 11 11 16 13 7 7 7 6 7
15 4 4 5 7 3 2 8 12 11 10 10 3 4 5 5 6 6 10 8 11 17 12 8 11 2 2 3 3 6 7 3 5 2 3 7 14 6 7 10 7 11 7 11 9
6 5 7 12 11 3 2 20 9 9 7 4 16 13 13 10 9 10 11 7 7 16 6 6 5 3 3 3 1 6 6 4 2 3 7 13 25 19 10 16 11 12 15 14 7
7 5 5 16 9 3 10 12 6 8 8 10 12 8 10 11 10 8 11 5 9 6 9 6 7 4 4 12 14 5 4 2 3 5 7 10 24 5 8 10 11 14 10 10 10
3 6 5 14 10 7 15 10 7 6 5 10 5 10 15 10 8 8 12 12 10 9 12 8 5 9 15 1 1 3 12 13 7 9 6 2 33 2 1 7 7 8 8 6 8
4 4 4 10 9 12 4 4 5 5 8 10 11 8 7 9 8 10 10 5 11 11 13 10 5 2 9 2 4 7 9 9 2 1 21 8 31 5 7 8 9 8 8 10 10
5 6 3 7 8 17 18 10 9 7 14 5 6 8 3 5 9 11 7 7 6 6 6 14 7 12 22 18 7 7 9 19 21 19 16 30 32 39 30 21 12 8 10 13 12
4 3 11 8 17 17 17 9 21 13 8 13 8 23 17 15 17 22 12 1 4 6 2 8 11 13 22 25 6 4 8 18 21 31 23 27 22 42 30 21 25 19 21 12 12
6 5 3 5 14 24 22 18 26 24 13 13 21 17 22 25 25 23 19 5 7 3 6 1 9 7 24 23 6 6 22 25 25 35 21 22 35 43 28 21 27 25 21 21 14
5 5 5 6 13 15 23 29 27 26 17 23 23 17 19 29 27 25 13 10 10 7 8 7 8 9 25 21 10 5 36 29 36 34 21 30 42 30 29 26 32 26 24 25 19
Wind_Direction
8 6 4 4 3 1 359 354 349 350 352 347 340 329 320 333 292 242 233 181 193 332 84 301 75 74 73 76 76 135 70 216 233 161 241 158 152 23 23 123 233 204 171 293 130
6 3 1 358 358 358 358 353 346 341 342 344 337 326 318 325 102 295 208 306 283 235 125 143 104 124 63 73 22 87 113 216 193 200 259 188 183 171 165 174 243 254 200 114 139
2 1 357 354 354 353 353 352 346 336 331 337 331 323 319 314 3 225 166 310 313 182 136 129 115 96 87 101 2 175 173 213 229 215 184 175 220 159 158 231 220 207 165 162 167
358 355 352 350 351 348 347 346 342 336 324 328 327 327 329 272 224 187 300 343 17 131 105 74 43 70 99 126 257 160 218 203 277 211 157 205 130 214 198 224 42 210 166 168 179
354 352 349 345 345 344 341 340 338 332 322 325 314 326 33 345 257 22 321 342 103 80 56 89 58 130 136 150 150 177 221 226 281 268 242 137 233 234 241 228 167 140 162 180 183
349 348 346 343 341 339 336 332 330 329 318 321 300 276 108 241 145 15 263 19 52 90 70 44 147 174 104 117 150 167 275 271 299 259 247 215 283 356 235 139 160 168 186 188 188
343 343 341 340 338 334 330 325 322 324 315 310 253 258 131 236 140 78 106 101 27 79 114 109 131 114 135 134 196 123 311 316 232 211 246 164 280 231 208 174 188 199 194 194 201
336 338 337 333 334 331 325 319 317 312 306 229 189 152 242 129 167 115 122 67 53 45 96 111 100 105 71 122 31 91 60 13 228 163 225 155 269 264 173 172 219 210 203 201 208
328 331 332 330 331 327 322 314 315 308 81 115 165 141 266 141 175 132 203 148 99 61 57 84 61 88 47 89 7 357 249 232 299 203 164 176 268 238 166 208 236 219 213 209 211
320 325 328 328 326 325 323 306 279 80 43 33 6 36 254 223 142 128 60 125 110 111 73 55 55 78 44 98 237 226 237 247 239 220 207 222 258 275 221 214 240 226 214 210 215
316 321 325 324 322 324 338 355 11 348 26 193 201 242 267 7 332 74 151 108 106 82 176 5 112 213 212 201 175 168 199 235 251 233 218 243 251 258 272 241 253 241 210 212 221
312 320 320 320 320 322 318 82 159 158 310 266 236 278 229 187 262 220 126 156 156 197 127 53 231 202 137 150 157 168 211 259 283 221 193 272 261 263 250 257 254 250 225 222 216
294 314 320 316 316 358 0 121 193 172 199 291 217 207 202 152 219 230 155 148 160 176 189 171 227 104 134 148 163 205 193 230 235 333 249 302 263 237 286 251 267 238 225 211 210
269 292 321 322 6 329 18 9 282 283 34 266 235 252 96 138 262 77 202 146 202 212 159 225 226 158 163 212 149 227 208 220 289 20 256 19 293 216 242 273 257 244 207 221 205
244 263 318 36 283 287 222 313 289 61 294 272 207 125 135 167 131 263 314 83 189 186 136 238 163 162 185 217 161 223 127 140 123 215 12 245 270 223 13 273 265 263 224 218 204
215 219 141 42 48 297 325 357 67 44 247 287 153 186 134 181 180 122 136 53 123 139 252 255 346 170 198 70 136 135 96 70 65 104 261 224 201 166 185 209 257 258 233 220 198
205 198 158 144 218 130 6 49 51 198 292 235 210 172 192 187 206 178 170 184 177 130 228 265 211 171 158 99 24 103 70 326 318 341 245 135 240 256 234 228 219 230 230 219 211
191 178 192 184 136 131 94 54 222 187 194 95 122 112 196 160 221 181 158 219 240 111 125 183 266 177 185 195 179 174 166 169 240 235 284 53 244 269 220 240 217 252 259 245 219
159 170 177 193 143 114 132 207 214 174 188 164 108 173 239 242 193 156 208 204 205 176 194 178 267 111 195 145 143 183 192 172 98 137 313 239 262 281 225 254 247 241 230 243 224
184 189 189 158 149 124 118 238 214 188 147 150 199 182 202 197 174 188 178 194 216 194 184 219 279 187 149 135 70 174 159 86 1 251 253 268 273 270 215 236 231 243 227 234 220
191 210 160 143 135 179 219 228 226 208 165 172 217 234 221 193 201 204 225 233 198 182 188 158 178 212 132 206 174 144 199 191 165 162 195 268 268 196 203 200 210 235 223 212 214
177 233 156 152 174 198 226 191 192 224 190 238 203 220 222 192 211 229 218 222 155 152 162 205 167 225 226 353 106 183 196 177 191 229 242 204 270 62 210 192 218 246 223 214 215
203 179 202 184 205 206 242 266 226 188 202 196 222 198 179 203 234 193 224 180 152 161 169 175 221 258 264 359 357 212 196 215 259 301 226 191 259 148 200 228 210 234 230 237 226
168 160 200 225 235 214 211 222 228 207 232 220 222 192 165 234 235 252 215 200 194 198 353 166 174 205 236 248 133 189 200 213 216 239 232 233 262 276 257 271 260 239 233 231 219
202 228 171 182 231 228 218 209 228 220 210 195 244 232 218 236 238 241 256 238 97 18 355 173 235 229 252 262 224 190 240 220 216 238 226 255 246 257 273 264 270 265 265 254 215
250 181 188 224 212 223 219 222 235 236 177 211 219 228 228 239 239 259 237 160 212 238 185 179 250 263 255 259 241 236 254 257 249 251 256 260 262 257 281 286 282 274 271 269 234
229 216 207 199 206 207 217 226 230 237 239 234 226 220 229 228 226 246 258 186 206 212 227 189 235 250 259 266 258 260 245 261 266 266 260 258 256 274 263 263 260 264 269 266 261